timestamp,waterbody_station,lease,latitude,longitude,deployment_start_date,deployment_end_date,sensor,depth,mooring,Temperature_degrees Celsius,Dissolved Oxygen_percent saturation,Salinity_practical salinity units
2019-01-17T00:00:00,Denas Pond-0193,193.0,46.00718,-60.98854,2018-10-30,2019-09-17,HOBO-10755219,2.0,fixed,6.433,,
2019-01-17T00:15:00,Denas Pond-0193,193.0,46.00718,-60.98854,2018-10-30,2019-09-17,HOBO-10755219,2.0,fixed,6.433,,
2019-01-17T00:30:00,Denas Pond-0193,193.0,46.00718,-60.98854,2018-10-30,2019-09-17,HOBO-10755219,2.0,fixed,6.433,,
2019-01-17T00:45:00,Denas Pond-0193,193.0,46.00718,-60.98854,2018-10-30,2019-09-17,HOBO-10755219,2.0,fixed,6.458,,
2019-01-17T01:00:00,Denas Pond-0193,193.0,46.00718,-60.98854,2018-10-30,2019-09-17,HOBO-10755219,2.0,fixed,6.636,,
2019-01-17T01:15:00,Denas Pond-0193,193.0,46.00718,-60.98854,2018-10-30,2019-09-17,HOBO-10755219,2.0,fixed,6.965,,
2019-01-17T01:30:00,Denas Pond-0193,193.0,46.00718,-60.98854,2018-10-30,2019-09-17,HOBO-10755219,2.0,fixed,7.041,,
2019-01-17T01:45:00,Denas Pond-0193,193.0,46.00718,-60.98854,2018-10-30,2019-09-17,HOBO-10755219,2.0,fixed,6.94,,
2019-01-17T02:00:00,Denas Pond-0193,193.0,46.00718,-60.98854,2018-10-30,2019-09-17,HOBO-10755219,2.0,fixed,6.965,,
2019-01-17T02:15:00,Denas Pond-0193,193.0,46.00718,-60.98854,2018-10-30,2019-09-17,HOBO-10755219,2.0,fixed,6.965,,
2019-01-17T02:30:00,Denas Pond-0193,193.0,46.00718,-60.98854,2018-10-30,2019-09-17,HOBO-10755219,2.0,fixed,6.99,,
2019-01-17T02:45:00,Denas Pond-0193,193.0,46.00718,-60.98854,2018-10-30,2019-09-17,HOBO-10755219,2.0,fixed,7.041,,
2019-01-17T03:00:00,Denas Pond-0193,193.0,46.00718,-60.98854,2018-10-30,2019-09-17,HOBO-10755219,2.0,fixed,7.041,,
2019-01-17T03:15:00,Denas Pond-0193,193.0,46.00718,-60.98854,2018-10-30,2019-09-17,HOBO-10755219,2.0,fixed,7.066,,
2019-01-17T03:30:00,Denas Pond-0193,193.0,46.00718,-60.98854,2018-10-30,2019-09-17,HOBO-10755219,2.0,fixed,6.965,,
2019-01-17T03:45:00,Denas Pond-0193,193.0,46.00718,-60.98854,2018-10-30,2019-09-17,HOBO-10755219,2.0,fixed,6.839,,
2019-01-17T04:00:00,Denas Pond-0193,193.0,46.00718,-60.98854,2018-10-30,2019-09-17,HOBO-10755219,2.0,fixed,6.763,,
2019-01-17T04:15:00,Denas Pond-0193,193.0,46.00718,-60.98854,2018-10-30,2019-09-17,HOBO-10755219,2.0,fixed,6.611,,
2019-01-17T04:30:00,Denas Pond-0193,193.0,46.00718,-60.98854,2018-10-30,2019-09-17,HOBO-10755219,2.0,fixed,6.509,,
2019-01-17T04:45:00,Denas Pond-0193,193.0,46.00718,-60.98854,2018-10-30,2019-09-17,HOBO-10755219,2.0,fixed,6.484,,
2019-01-17T05:00:00,Denas Pond-0193,193.0,46.00718,-60.98854,2018-10-30,2019-09-17,HOBO-10755219,2.0,fixed,6.484,,
2019-01-17T05:15:00,Denas Pond-0193,193.0,46.00718,-60.98854,2018-10-30,2019-09-17,HOBO-10755219,2.0,fixed,6.535,,
2019-01-17T05:30:00,Denas Pond-0193,193.0,46.00718,-60.98854,2018-10-30,2019-09-17,HOBO-10755219,2.0,fixed,6.535,,
2019-01-17T05:45:00,Denas Pond-0193,193.0,46.00718,-60.98854,2018-10-30,2019-09-17,HOBO-10755219,2.0,fixed,6.56,,
2019-01-17T06:00:00,Denas Pond-0193,193.0,46.00718,-60.98854,2018-10-30,2019-09-17,HOBO-10755219,2.0,fixed,6.585,,
2019-01-17T06:15:00,Denas Pond-0193,193.0,46.00718,-60.98854,2018-10-30,2019-09-17,HOBO-10755219,2.0,fixed,6.611,,
2019-01-17T06:30:00,Denas Pond-0193,193.0,46.00718,-60.98854,2018-10-30,2019-09-17,HOBO-10755219,2.0,fixed,6.611,,
2019-01-17T06:45:00,Denas Pond-0193,193.0,46.00718,-60.98854,2018-10-30,2019-09-17,HOBO-10755219,2.0,fixed,6.636,,
2019-01-17T07:00:00,Denas Pond-0193,193.0,46.00718,-60.98854,2018-10-30,2019-09-17,HOBO-10755219,2.0,fixed,6.661,,
2019-01-17T07:15:00,Denas Pond-0193,193.0,46.00718,-60.98854,2018-10-30,2019-09-17,HOBO-10755219,2.0,fixed,6.661,,
2019-01-17T07:30:00,Denas Pond-0193,193.0,46.00718,-60.98854,2018-10-30,2019-09-17,HOBO-10755219,2.0,fixed,6.661,,
2019-01-17T07:45:00,Denas Pond-0193,193.0,46.00718,-60.98854,2018-10-30,2019-09-17,HOBO-10755219,2.0,fixed,6.661,,
2019-01-17T08:00:00,Denas Pond-0193,193.0,46.00718,-60.98854,2018-10-30,2019-09-17,HOBO-10755219,2.0,fixed,6.636,,
2019-01-17T08:15:00,Denas Pond-0193,193.0,46.00718,-60.98854,2018-10-30,2019-09-17,HOBO-10755219,2.0,fixed,6.687,,
2019-01-17T08:30:00,Denas Pond-0193,193.0,46.00718,-60.98854,2018-10-30,2019-09-17,HOBO-10755219,2.0,fixed,6.839,,
2019-01-17T08:45:00,Denas Pond-0193,193.0,46.00718,-60.98854,2018-10-30,2019-09-17,HOBO-10755219,2.0,fixed,6.94,,
2019-01-17T09:00:00,Denas Pond-0193,193.0,46.00718,-60.98854,2018-10-30,2019-09-17,HOBO-10755219,2.0,fixed,6.99,,
2019-01-17T09:15:00,Denas Pond-0193,193.0,46.00718,-60.98854,2018-10-30,2019-09-17,HOBO-10755219,2.0,fixed,6.94,,
2019-01-17T09:30:00,Denas Pond-0193,193.0,46.00718,-60.98854,2018-10-30,2019-09-17,HOBO-10755219,2.0,fixed,6.94,,
2019-01-17T09:45:00,Denas Pond-0193,193.0,46.00718,-60.98854,2018-10-30,2019-09-17,HOBO-10755219,2.0,fixed,6.864,,
2019-01-17T10:00:00,Denas Pond-0193,193.0,46.00718,-60.98854,2018-10-30,2019-09-17,HOBO-10755219,2.0,fixed,6.839,,
2019-01-17T10:15:00,Denas Pond-0193,193.0,46.00718,-60.98854,2018-10-30,2019-09-17,HOBO-10755219,2.0,fixed,6.839,,
2019-01-17T10:30:00,Denas Pond-0193,193.0,46.00718,-60.98854,2018-10-30,2019-09-17,HOBO-10755219,2.0,fixed,6.94,,
2019-01-17T10:45:00,Denas Pond-0193,193.0,46.00718,-60.98854,2018-10-30,2019-09-17,HOBO-10755219,2.0,fixed,6.99,,
2019-01-17T11:00:00,Denas Pond-0193,193.0,46.00718,-60.98854,2018-10-30,2019-09-17,HOBO-10755219,2.0,fixed,6.99,,
2019-01-17T11:15:00,Denas Pond-0193,193.0,46.00718,-60.98854,2018-10-30,2019-09-17,HOBO-10755219,2.0,fixed,6.914,,
2019-01-17T11:30:00,Denas Pond-0193,193.0,46.00718,-60.98854,2018-10-30,2019-09-17,HOBO-10755219,2.0,fixed,6.839,,
2019-01-17T11:45:00,Denas Pond-0193,193.0,46.00718,-60.98854,2018-10-30,2019-09-17,HOBO-10755219,2.0,fixed,6.687,,
2019-01-17T12:00:00,Denas Pond-0193,193.0,46.00718,-60.98854,2018-10-30,2019-09-17,HOBO-10755219,2.0,fixed,6.611,,
2019-01-17T12:15:00,Denas Pond-0193,193.0,46.00718,-60.98854,2018-10-30,2019-09-17,HOBO-10755219,2.0,fixed,6.585,,
2019-01-17T12:30:00,Denas Pond-0193,193.0,46.00718,-60.98854,2018-10-30,2019-09-17,HOBO-10755219,2.0,fixed,6.611,,
2019-01-17T12:45:00,Denas Pond-0193,193.0,46.00718,-60.98854,2018-10-30,2019-09-17,HOBO-10755219,2.0,fixed,6.661,,
2019-01-17T13:00:00,Denas Pond-0193,193.0,46.00718,-60.98854,2018-10-30,2019-09-17,HOBO-10755219,2.0,fixed,6.813,,
2019-01-17T13:15:00,Denas Pond-0193,193.0,46.00718,-60.98854,2018-10-30,2019-09-17,HOBO-10755219,2.0,fixed,6.914,,
2019-01-17T13:30:00,Denas Pond-0193,193.0,46.00718,-60.98854,2018-10-30,2019-09-17,HOBO-10755219,2.0,fixed,6.965,,
2019-01-17T13:45:00,Denas Pond-0193,193.0,46.00718,-60.98854,2018-10-30,2019-09-17,HOBO-10755219,2.0,fixed,6.889,,
2019-01-17T14:00:00,Denas Pond-0193,193.0,46.00718,-60.98854,2018-10-30,2019-09-17,HOBO-10755219,2.0,fixed,6.763,,
2019-01-17T14:15:00,Denas Pond-0193,193.0,46.00718,-60.98854,2018-10-30,2019-09-17,HOBO-10755219,2.0,fixed,6.636,,
2019-01-17T14:30:00,Denas Pond-0193,193.0,46.00718,-60.98854,2018-10-30,2019-09-17,HOBO-10755219,2.0,fixed,6.611,,
2019-01-17T14:45:00,Denas Pond-0193,193.0,46.00718,-60.98854,2018-10-30,2019-09-17,HOBO-10755219,2.0,fixed,6.611,,
2019-01-17T15:00:00,Denas Pond-0193,193.0,46.00718,-60.98854,2018-10-30,2019-09-17,HOBO-10755219,2.0,fixed,6.712,,
2019-01-17T15:15:00,Denas Pond-0193,193.0,46.00718,-60.98854,2018-10-30,2019-09-17,HOBO-10755219,2.0,fixed,6.914,,
2019-01-17T15:30:00,Denas Pond-0193,193.0,46.00718,-60.98854,2018-10-30,2019-09-17,HOBO-10755219,2.0,fixed,7.015,,
2019-01-17T15:45:00,Denas Pond-0193,193.0,46.00718,-60.98854,2018-10-30,2019-09-17,HOBO-10755219,2.0,fixed,7.066,,
2019-01-17T16:00:00,Denas Pond-0193,193.0,46.00718,-60.98854,2018-10-30,2019-09-17,HOBO-10755219,2.0,fixed,6.99,,
2019-01-17T16:15:00,Denas Pond-0193,193.0,46.00718,-60.98854,2018-10-30,2019-09-17,HOBO-10755219,2.0,fixed,6.914,,
2019-01-17T16:30:00,Denas Pond-0193,193.0,46.00718,-60.98854,2018-10-30,2019-09-17,HOBO-10755219,2.0,fixed,6.889,,
2019-01-17T16:45:00,Denas Pond-0193,193.0,46.00718,-60.98854,2018-10-30,2019-09-17,HOBO-10755219,2.0,fixed,6.889,,
2019-01-17T17:00:00,Denas Pond-0193,193.0,46.00718,-60.98854,2018-10-30,2019-09-17,HOBO-10755219,2.0,fixed,6.94,,
2019-01-17T17:15:00,Denas Pond-0193,193.0,46.00718,-60.98854,2018-10-30,2019-09-17,HOBO-10755219,2.0,fixed,7.015,,
2019-01-17T17:30:00,Denas Pond-0193,193.0,46.00718,-60.98854,2018-10-30,2019-09-17,HOBO-10755219,2.0,fixed,7.041,,
2019-01-17T17:45:00,Denas Pond-0193,193.0,46.00718,-60.98854,2018-10-30,2019-09-17,HOBO-10755219,2.0,fixed,7.066,,
2019-01-17T18:00:00,Denas Pond-0193,193.0,46.00718,-60.98854,2018-10-30,2019-09-17,HOBO-10755219,2.0,fixed,7.091,,
2019-01-17T18:15:00,Denas Pond-0193,193.0,46.00718,-60.98854,2018-10-30,2019-09-17,HOBO-10755219,2.0,fixed,7.041,,
2019-01-17T18:30:00,Denas Pond-0193,193.0,46.00718,-60.98854,2018-10-30,2019-09-17,HOBO-10755219,2.0,fixed,7.015,,
2019-01-17T18:45:00,Denas Pond-0193,193.0,46.00718,-60.98854,2018-10-30,2019-09-17,HOBO-10755219,2.0,fixed,7.041,,
2019-01-17T19:00:00,Denas Pond-0193,193.0,46.00718,-60.98854,2018-10-30,2019-09-17,HOBO-10755219,2.0,fixed,7.015,,
2019-01-17T19:15:00,Denas Pond-0193,193.0,46.00718,-60.98854,2018-10-30,2019-09-17,HOBO-10755219,2.0,fixed,7.041,,
2019-01-17T19:30:00,Denas Pond-0193,193.0,46.00718,-60.98854,2018-10-30,2019-09-17,HOBO-10755219,2.0,fixed,7.091,,
2019-01-17T19:45:00,Denas Pond-0193,193.0,46.00718,-60.98854,2018-10-30,2019-09-17,HOBO-10755219,2.0,fixed,7.167,,
2019-01-17T20:00:00,Denas Pond-0193,193.0,46.00718,-60.98854,2018-10-30,2019-09-17,HOBO-10755219,2.0,fixed,7.192,,
2019-01-17T20:15:00,Denas Pond-0193,193.0,46.00718,-60.98854,2018-10-30,2019-09-17,HOBO-10755219,2.0,fixed,7.217,,
2019-01-17T20:30:00,Denas Pond-0193,193.0,46.00718,-60.98854,2018-10-30,2019-09-17,HOBO-10755219,2.0,fixed,7.167,,
2019-01-17T20:45:00,Denas Pond-0193,193.0,46.00718,-60.98854,2018-10-30,2019-09-17,HOBO-10755219,2.0,fixed,7.142,,
2019-01-17T21:00:00,Denas Pond-0193,193.0,46.00718,-60.98854,2018-10-30,2019-09-17,HOBO-10755219,2.0,fixed,7.116,,
2019-01-17T21:15:00,Denas Pond-0193,193.0,46.00718,-60.98854,2018-10-30,2019-09-17,HOBO-10755219,2.0,fixed,7.091,,
2019-01-17T21:30:00,Denas Pond-0193,193.0,46.00718,-60.98854,2018-10-30,2019-09-17,HOBO-10755219,2.0,fixed,7.116,,
2019-01-17T21:45:00,Denas Pond-0193,193.0,46.00718,-60.98854,2018-10-30,2019-09-17,HOBO-10755219,2.0,fixed,7.167,,
2019-01-17T22:00:00,Denas Pond-0193,193.0,46.00718,-60.98854,2018-10-30,2019-09-17,HOBO-10755219,2.0,fixed,7.192,,
2019-01-17T22:15:00,Denas Pond-0193,193.0,46.00718,-60.98854,2018-10-30,2019-09-17,HOBO-10755219,2.0,fixed,7.192,,
2019-01-17T22:30:00,Denas Pond-0193,193.0,46.00718,-60.98854,2018-10-30,2019-09-17,HOBO-10755219,2.0,fixed,7.192,,
2019-01-17T22:45:00,Denas Pond-0193,193.0,46.00718,-60.98854,2018-10-30,2019-09-17,HOBO-10755219,2.0,fixed,7.192,,
2019-01-17T23:00:00,Denas Pond-0193,193.0,46.00718,-60.98854,2018-10-30,2019-09-17,HOBO-10755219,2.0,fixed,7.242,,
2019-01-17T23:15:00,Denas Pond-0193,193.0,46.00718,-60.98854,2018-10-30,2019-09-17,HOBO-10755219,2.0,fixed,7.217,,
2019-01-17T23:30:00,Denas Pond-0193,193.0,46.00718,-60.98854,2018-10-30,2019-09-17,HOBO-10755219,2.0,fixed,7.167,,
2019-01-17T23:45:00,Denas Pond-0193,193.0,46.00718,-60.98854,2018-10-30,2019-09-17,HOBO-10755219,2.0,fixed,7.041,,
